This is the latest recevied weather packets stored in our database for station/object KD9CCP. If no packets are shown the sender has not sent any weather packets the latest 10 day(s).
| Time | Temp. | Humidity | Pressure | Rain* | Wind** | Luminosity | Snow |
|---|---|---|---|---|---|---|---|
| 1777587033 | 3.33° C | 75% | 1017.6 hPa | 0 mm | - | 39 W/m² | - |
| 1777586729 | 2.78° C | 76% | 1017.5 hPa | 0 mm | - | 29 W/m² | - |
| 1777586426 | 3.33° C | 76% | 1017.5 hPa | 0 mm | - | 26 W/m² | - |
| 1777586125 | 3.33° C | 77% | 1017.8 hPa | 0 mm | - | 27 W/m² | - |
| 1777585824 | 3.33° C | 79% | 1017.7 hPa | 0 mm | - | 31 W/m² | - |
| 1777585523 | 3.33° C | 79% | 1017.5 hPa | 0 mm | - | 35 W/m² | - |
| 1777585219 | 3.33° C | 80% | 1017.4 hPa | 0 mm | - | 39 W/m² | - |
| 1777584914 | 3.33° C | 80% | 1017.5 hPa | 0 mm | - | 42 W/m² | - |
| 1777584612 | 2.78° C | 81% | 1017.5 hPa | 0 mm | - | 49 W/m² | - |
| 1777584309 | 2.78° C | 81% | 1017.5 hPa | 0 mm | - | 58 W/m² | - |
| 1777584004 | 2.78° C | 83% | 1017.7 hPa | 0 mm | - | 63 W/m² | - |
| 1777583700 | 2.78° C | 83% | 1017.6 hPa | 0 mm | - | 65 W/m² | - |
| 1777583399 | 2.22° C | 83% | 1017.7 hPa | 0 mm | - | 58 W/m² | - |
| 1777583098 | 2.22° C | 85% | 1017.7 hPa | 0 mm | - | 49 W/m² | - |
| 1777582794 | 2.22° C | 84% | 1017.8 hPa | 0 mm | - | 26 W/m² | - |
| 1777582490 | 2.78° C | 83% | 1017.8 hPa | 0 mm | - | 21 W/m² | - |
| 1777582185 | 2.78° C | 82% | 1017.7 hPa | 0 mm | - | 39 W/m² | - |
| 1777581884 | 2.78° C | 83% | 1017.6 hPa | 0 mm | - | 42 W/m² | - |
| 1777581578 | 2.78° C | 83% | 1017.7 hPa | 0 mm | - | 27 W/m² | - |
| 1777581273 | 2.78° C | 83% | 1017.7 hPa | 0 mm | - | 34 W/m² | - |
| 1777580969 | 3.33° C | 83% | 1017.7 hPa | 0 mm | - | 41 W/m² | - |
| 1777580668 | 2.78° C | 84% | 1017.8 hPa | 0 mm | - | 42 W/m² | - |
| 1777580364 | 2.78° C | 84% | 1017.9 hPa | 0 mm | - | 41 W/m² | - |
| 1777580061 | 2.78° C | 86% | 1017.8 hPa | 0 mm | - | 41 W/m² | - |
| 1777579757 | 2.78° C | 85% | 1017.9 hPa | 0 mm | - | 49 W/m² | - |
* Rain latest hour (hover to see other rain measurements)
** Current wind speed in m/s (hover to see current wind gust speed)